Location: Domont
(49.0278°N, 2.3264°E)
Time: 11:20:17
(UTC+00:00)

DX 1 - Pass Details

Date: 29 June 2022
Orbit: 617 x 629 km, 98.4° (Epoch: 10 August)

Event Time Altitude Azimuth Distance (km) Brightness Sun altitude
Rises 21:58:31 0° 7° (N) 2,934 ? -13.3°
Reaches altitude 10° 22:00:52 10° 358° (N) 2,021 ? -13.5°
Maximum altitude 22:04:49 34° 294° (WNW) 1,054 ? -13.8°
Drops below altitude 10° 22:08:44 10° 230° (SW) 2,003 ? -14.0°
Sets 22:11:04 0° 221° (SW) 2,903 ? -14.2°
